[Date Prev][Date Next][Thread Prev][Thread Next] - [Date Index][Thread Index][Author Index]
2 Line ISS Keps 6-7
- Subject: [sarex] 2 Line ISS Keps 6-7
- From: "Dave Larsen PhD" <doc@xxxxxxxxxxx>
- Date: Sat, 7 Jun 2003 03:47:23 -0700
ISS
1 25544U 98067A 03158.11861840 .00011594 00000-0 15073-3 0 884
2 25544 51.6326 70.8332 0006545 223.2086 276.3803 15.59269008259438
----
Via the sarex mailing list at AMSAT.ORG courtesy of AMSAT-NA.
To unsubscribe, send "unsubscribe sarex" to Majordomo@amsat.org
AMSAT Home